Погода в Седоне

США     34°52′10″N   111°45′36″W
темп.,
°C
ветер,
м/с
пор.,
м/с
влажн.,
%
обл.,
%
осадки,
мм/ч
давл.,
гПа
погр.,
м
26 февраля, пт
пт2623:00+3всв23330 0.0 102027
02:00+2св12380 0.0 101922
05:000св11412 0.0 101822
08:00+3всв1141100 0.0 101922
11:00+9зюз212167 0.0 1017458
14:00+13юз32140 0.0 1013693
17:00+14ююв23150 0.0 1010653
20:00+7ю23370 0.0 101222
27 февраля, сб
сб2723:00+4юв22420 0.0 101222
02:00+3ююв22430 0.0 101222
05:00+1вюв11450 0.0 101322
08:00+4сз01460 0.0 101427
11:00+9юз22220 0.0 1013991
14:00+12юз25200 0.0 10102034
17:00+12зсз57200 0.0 10101887
20:00+6сз23300 0.0 101439
28 февраля, вс
вс2823:00+3ссв33310 0.0 101727
02:00+1ссв23340 0.0 101827
05:00−1всв223917 0.0 101922
08:00+1св612310 0.0 1021949
11:00+6ссв910210 0.0 10212171
14:00+7ссв811130 0.0 10202467
17:00+6ссв914160 0.0 10211728
20:00+1ссв48200 0.0 1025343
1 марта, пн
пн123:00−1ссз23230 0.0 102784
02:00−2ссв23240 0.0 102836
05:00−3св22290 0.0 102924
08:00+1св34240 0.0 1029161
11:00+10в25150 0.0 1024927
14:00+16в56130 0.0 10201650
17:00+15ю57150 0.0 10171661
20:00+6всв45330 0.0 101948
2 марта, вт
вт223:00+5всв33340 0.0 101930
02:00+3всв33380 0.0 101826
05:00+2всв22400 0.0 101823
08:00+5всв22400 0.0 101732
11:00+12юз332532 0.0 1013496
14:00+16юз36170 0.0 10101626
17:00+15ююз89170 0.0 10081861
20:00+9в44320 0.0 100935